Terminal Aerodrome Forecast
Issued by NWS

Home | Current Version | Previous Version | Text Only | Print | Product List | Glossary On
Versions: 1 2 3 4 5 6 7 8 9 10 11 12 13 14
000
FTAK31 PAJN 041700
TAFAYA
TAF
PAYA 041737Z 0418/0518 VRB03KT P6SM BKN025 OVC040
     FM042000 22005KT P6SM SCT045 BKN180
     FM050300 VRB03KT P6SM BKN100
     FM050900 00000KT P6SM BCFG SCT005 BKN100
     FM051500 00000KT P6SM SCT060 BKN120
      AMD LTD TO CLD VIS AND WIND 0501/0510=

USA.gov is the U.S. government's official web portal to all federal, state and local government web resources and services.